• In Uzbekistan
  • List of Countries
  • For 7 days
  • Water Temperature
  • Satellite Maps
  • Weather Map
  • Weather Widgets
  • user-avatar
    Login

    Hourly Weather Skalka

    Today, 17 July, Tuesday

    Time Temperature Precipitation Wind Pressure Humidity
    00:00 +12°C° 0 mm 2 mps 686 mmHg 93%
    01:00 +12°C° 0 mm 2 mps 685 mmHg 95%
    02:00 +12°C° 0.1 mm 2 mps 685 mmHg 95%
    03:00 +12°C° 0.1 mm 2 mps 685 mmHg 95%
    04:00 +12°C° 0.1 mm 2 mps 684 mmHg 95%
    05:00 +13°C° 0 mm 2 mps 685 mmHg 93%
    06:00 +15°C° 0 mm 2 mps 685 mmHg 91%
    07:00 +16°C° 0 mm 2 mps 685 mmHg 88%
    08:00 +16°C° 0.4 mm 3 mps 685 mmHg 88%
    09:00 +17°C° 0.4 mm 3 mps 685 mmHg 88%
    10:00 +17°C° 0.4 mm 3 mps 685 mmHg 88%
    11:00 +17°C° 0.3 mm 4 mps 685 mmHg 84%
    12:00 +18°C° 0.3 mm 4 mps 685 mmHg 80%
    13:00 +19°C° 0.3 mm 5 mps 685 mmHg 76%
    14:00 +19°C° 0.4 mm 4 mps 685 mmHg 78%
    15:00 +18°C° 0.4 mm 4 mps 685 mmHg 79%
    16:00 +18°C° 0.4 mm 4 mps 684 mmHg 81%
    17:00 +17°C° 0.3 mm 4 mps 684 mmHg 85%
    18:00 +16°C° 0.3 mm 3 mps 684 mmHg 89%
    19:00 +16°C° 0.3 mm 3 mps 684 mmHg 93%
    20:00 +14°C° 0.2 mm 3 mps 684 mmHg 94%
    21:00 +14°C° 0.2 mm 3 mps 684 mmHg 95%
    22:00 +15°C° 0.2 mm 2 mps 684 mmHg 96%
    23:00 +14°C° 0.1 mm 3 mps 684 mmHg 96%

    Tomorrow, 18 July, Wednesday

    Time Temperature Precipitation Wind Pressure Humidity
    00:00 +14°C° 0.1 mm 3 mps 684 mmHg 96%
    01:00 +14°C° 0.1 mm 3 mps 684 mmHg 96%
    02:00 +13°C° 0.2 mm 3 mps 684 mmHg 96%
    03:00 +13°C° 0.2 mm 3 mps 683 mmHg 96%
    04:00 +14°C° 0.2 mm 2 mps 683 mmHg 96%
    05:00 +14°C° 0.6 mm 3 mps 683 mmHg 96%
    06:00 +14°C° 0.6 mm 3 mps 683 mmHg 95%
    07:00 +14°C° 0.6 mm 3 mps 683 mmHg 94%
    08:00 +14°C° 1 mm 3 mps 684 mmHg 92%
    09:00 +16°C° 1 mm 3 mps 684 mmHg 91%
    10:00 +16°C° 1 mm 3 mps 684 mmHg 90%
    11:00 +16°C° 0.5 mm 3 mps 684 mmHg 89%
    12:00 +16°C° 0.5 mm 3 mps 684 mmHg 89%
    13:00 +16°C° 0.5 mm 2 mps 684 mmHg 89%
    14:00 +17°C° 0.6 mm 2 mps 684 mmHg 90%
    15:00 +17°C° 0.6 mm 2 mps 684 mmHg 90%
    16:00 +17°C° 0.6 mm 2 mps 684 mmHg 91%
    17:00 +17°C° 0.8 mm 2 mps 684 mmHg 92%
    18:00 +17°C° 0.8 mm 2 mps 684 mmHg 93%
    19:00 +16°C° 0.8 mm 2 mps 684 mmHg 95%
    20:00 +16°C° 0.6 mm 2 mps 685 mmHg 95%
    21:00 +16°C° 0.6 mm 2 mps 685 mmHg 96%
    22:00 +16°C° 0.6 mm 2 mps 685 mmHg 97%
    23:00 +16°C° 0.2 mm 2 mps 685 mmHg 97%

    Day after tomorrow, 19 July, Thursday

    Time Temperature Precipitation Wind Pressure Humidity
    00:00 +16°C° 0.2 mm 2 mps 685 mmHg 97%
    01:00 +16°C° 0.2 mm 3 mps 685 mmHg 98%
    02:00 +16°C° 0.1 mm 3 mps 686 mmHg 97%
    03:00 +16°C° 0.1 mm 3 mps 686 mmHg 97%
    04:00 +16°C° 0.1 mm 2 mps 686 mmHg 97%
    05:00 +16°C° 0.2 mm 2 mps 686 mmHg 96%
    06:00 +17°C° 0.2 mm 3 mps 686 mmHg 95%
    07:00 +17°C° 0.2 mm 3 mps 687 mmHg 94%
    08:00 +17°C° 0.3 mm 3 mps 687 mmHg 93%
    09:00 +17°C° 0.3 mm 3 mps 687 mmHg 92%
    10:00 +18°C° 0.3 mm 3 mps 687 mmHg 90%
    11:00 +18°C° 0.3 mm 3 mps 688 mmHg 90%
    12:00 +18°C° 0.3 mm 3 mps 688 mmHg 89%
    13:00 +18°C° 0.3 mm 3 mps 688 mmHg 89%
    14:00 +18°C° 0.1 mm 3 mps 688 mmHg 88%
    15:00 +18°C° 0.1 mm 3 mps 688 mmHg 87%
    16:00 +18°C° 0.1 mm 4 mps 688 mmHg 86%
    17:00 +17°C° 0 mm 3 mps 688 mmHg 88%
    18:00 +17°C° 0 mm 3 mps 688 mmHg 90%
    19:00 +16°C° 0 mm 3 mps 688 mmHg 92%
    20:00 +16°C° 0 mm 3 mps 688 mmHg 93%
    21:00 +15°C° 0 mm 2 mps 689 mmHg 94%
    22:00 +15°C° 0 mm 2 mps 689 mmHg 95%
    23:00 +15°C° 0 mm 2 mps 689 mmHg 95%

    20 July, Friday

    Time Temperature Precipitation Wind Pressure Humidity
    00:00 +15°C° 0 mm 2 mps 689 mmHg 95%
    01:00 +14°C° 0 mm 2 mps 689 mmHg 95%
    02:00 +14°C° 0 mm 2 mps 689 mmHg 95%
    03:00 +14°C° 0 mm 2 mps 689 mmHg 95%
    04:00 +14°C° 0 mm 2 mps 689 mmHg 96%
    05:00 +15°C° 0.1 mm 2 mps 689 mmHg 94%
    06:00 +15°C° 0.1 mm 2 mps 689 mmHg 92%
    07:00 +16°C° 0.1 mm 2 mps 689 mmHg 90%
    08:00 +17°C° 0.1 mm 3 mps 689 mmHg 86%
    09:00 +17°C° 0.1 mm 3 mps 690 mmHg 82%
    10:00 +18°C° 0.1 mm 3 mps 690 mmHg 79%
    11:00 +19°C° 0 mm 3 mps 690 mmHg 75%
    12:00 +19°C° 0 mm 3 mps 690 mmHg 72%
    13:00 +20°C° 0 mm 3 mps 690 mmHg 69%
    14:00 +20°C° 0 mm 3 mps 690 mmHg 69%
    15:00 +20°C° 0 mm 3 mps 690 mmHg 69%
    16:00 +20°C° 0 mm 3 mps 690 mmHg 69%
    17:00 +19°C° 0 mm 3 mps 690 mmHg 75%
    18:00 +18°C° 0 mm 2 mps 689 mmHg 80%
    19:00 +17°C° 0 mm 2 mps 689 mmHg 86%
    20:00 +16°C° 0 mm 2 mps 689 mmHg 89%
    21:00 +15°C° 0 mm 1 mps 689 mmHg 92%
    22:00 +14°C° 0 mm 1 mps 689 mmHg 94%
    23:00 +14°C° 0 mm 1 mps 689 mmHg 95%

    21 July, Saturday

    Time Temperature Precipitation Wind Pressure Humidity
    00:00 +13°C° 0 mm 1 mps 689 mmHg 95%
    01:00 +13°C° 0 mm 1 mps 689 mmHg 96%
    02:00 +13°C° 0 mm 1 mps 689 mmHg 96%
    03:00 +13°C° 0 mm 1 mps 688 mmHg 96%
    04:00 +12°C° 0 mm 1 mps 688 mmHg 96%
    05:00 +14°C° 0 mm 1 mps 689 mmHg 91%
    06:00 +16°C° 0 mm 2 mps 689 mmHg 86%
    07:00 +17°C° 0 mm 2 mps 690 mmHg 80%
    08:00 +19°C° 0.1 mm 2 mps 690 mmHg 74%
    09:00 +20°C° 0.1 mm 2 mps 690 mmHg 69%
    10:00 +23°C° 0.1 mm 2 mps 690 mmHg 63%
    11:00 +23°C° 0.2 mm 2 mps 690 mmHg 62%
    12:00 +23°C° 0.2 mm 2 mps 690 mmHg 60%
    13:00 +24°C° 0.2 mm 2 mps 690 mmHg 59%
    14:00 +24°C° 0.2 mm 2 mps 690 mmHg 61%
    15:00 +23°C° 0.2 mm 2 mps 689 mmHg 63%
    16:00 +23°C° 0.2 mm 2 mps 689 mmHg 65%
    17:00 +21°C° 0.1 mm 2 mps 689 mmHg 71%
    18:00 +19°C° 0.1 mm 2 mps 689 mmHg 78%
    19:00 +19°C° 0.1 mm 1 mps 689 mmHg 85%
    20:00 +16°C° 0 mm 1 mps 688 mmHg 87%
    21:00 +15°C° 0 mm 1 mps 688 mmHg 89%
    22:00 +14°C° 0 mm 1 mps 688 mmHg 91%
    23:00 +14°C° 0 mm 1 mps 688 mmHg 92%

    22 July, Sunday

    Time Temperature Precipitation Wind Pressure Humidity
    00:00 +13°C° 0 mm 1 mps 688 mmHg 92%
    01:00 +13°C° 0 mm 1 mps 688 mmHg 93%
    02:00 +12°C° 0 mm 1 mps 688 mmHg 93%
    03:00 +12°C° 0 mm 1 mps 688 mmHg 93%
    04:00 +12°C° 0 mm 1 mps 688 mmHg 94%
    05:00 +13°C° 0 mm 1 mps 688 mmHg 89%
    06:00 +15°C° 0 mm 2 mps 689 mmHg 85%
    07:00 +16°C° 0 mm 2 mps 689 mmHg 81%
    08:00 +18°C° 0.1 mm 2 mps 689 mmHg 75%
    09:00 +19°C° 0.1 mm 2 mps 689 mmHg 69%
    10:00 +20°C° 0.1 mm 3 mps 690 mmHg 62%
    11:00 +21°C° 0.1 mm 3 mps 689 mmHg 62%
    12:00 +21°C° 0.1 mm 3 mps 689 mmHg 61%
    13:00 +21°C° 0.1 mm 4 mps 689 mmHg 60%
    14:00 +21°C° 0.2 mm 3 mps 689 mmHg 63%
    15:00 +20°C° 0.2 mm 3 mps 689 mmHg 66%
    16:00 +20°C° 0.2 mm 3 mps 689 mmHg 69%
    17:00 +19°C° 0.2 mm 3 mps 689 mmHg 74%
    18:00 +17°C° 0.2 mm 2 mps 689 mmHg 80%
    19:00 +16°C° 0.2 mm 2 mps 689 mmHg 86%
    20:00 +15°C° 0 mm 2 mps 689 mmHg 88%
    21:00 +14°C° 0 mm 2 mps 689 mmHg 90%
    22:00 +13°C° 0 mm 2 mps 689 mmHg 92%
    23:00 +13°C° 0 mm 2 mps 689 mmHg 92%
    Show more